Simultaneous Nadir Overpasses (SNOs) Predictions

Prediction of SNOs between AQUA and METOP-A Satellite Orbit:

Table of predicted SNOs for the next 14.0 days since TLE Epoch: 10/5/2012
Index Date (AQUA) Time (AQUA) AQUA Lat,Lon Date (METOP-A) Time (METOP-A) METOP-A Lat,Lon Distance(km) Time Diff (sec)
1 10/06/2012 01:54:46 73.78, 145.56 10/06/2012 01:54:09 73.77, 145.49 2.77 37
2 10/06/2012 02:44:13 -73.86, -46.97 10/06/2012 02:44:49 -73.87, -46.95 0.71 36
3 10/08/2012 21:29:04 73.79,-148.04 10/08/2012 21:28:28 73.78,-148.07 2.15 36
4 10/08/2012 22:18:31 -73.87, 19.44 10/08/2012 22:19:08 -73.88, 19.50 2.28 37
5 10/11/2012 17:03:20 73.79, -81.60 10/11/2012 17:02:44 73.80, -81.59 1.50 36
6 10/11/2012 17:52:47 -73.86, 85.88 10/11/2012 17:53:25 -73.86, 85.88 0.15 38
7 10/14/2012 12:37:36 73.78, -15.14 10/14/2012 12:37:00 73.80, -15.17 2.72 36
8 10/14/2012 13:27:03 -73.84, 152.36 10/14/2012 13:27:41 -73.86, 152.31 2.71 38
9 10/17/2012 08:11:52 73.80, 51.25 10/17/2012 08:11:14 73.81, 51.30 2.14 38
10 10/17/2012 09:01:19 -73.86,-141.25 10/17/2012 09:01:55 -73.88,-141.21 2.27 36




NCC Satellite Simultaneous Nadir Overpasses (SNOs) Prediction Service
